Location: Asheville, NC
(35.6000°N, 82.5500°W)
Time: 16:17:51
(UTC-05:00)

OTV 5 (USA 277) - Pass Details

Date: 12 January 2018
Orbit: 404 x 417 km, 43.0° (Epoch: 07 September)

Event Time Altitude Azimuth Distance (km) Brightness Sun altitude
Exits shadow 05:44:16 42° 127° (SE) 581 ? -23.1°
Drops below altitude 10° 05:46:34 10° 121° (ESE) 1,445 ? -22.6°
Sets 05:48:39 0° 121° (ESE) 2,301 ? -22.2°
